Weather History for KIOB - October, 2012

Change the Weather History Date:

Monday, October 8, 2012

  Actual Average Record
Temperature  
Mean Temperature 44 °F -  
Max Temperature 51 °F 70 °F 69 °F (2014)
Min Temperature 37 °F 47 °F 39 °F (2013)
Degree Days  
Heating Degree Days 21    
Moisture  
Dew Point 38 °F    
Average Humidity 82    
Maximum Humidity 100    
Minimum Humidity 66    
Precipitation  
Precipitation 0.00 in - - ()
Sea Level Pressure  
Sea Level Pressure 30.21 in    
Wind  
Wind Speed 2 mph ()    
Max Wind Speed 8 mph    
Max Gust Speed -    
Visibility 10.0 miles    
Events      
Averages and records for this station are not official NWS values.
T = Trace of Precipitation, MM = Missing Value Source: Averaged Metar Reports

Daily Weather History Graph

Daily Weather History Graph

Search for Another Location

Airport or City:

Trip Planner

Search our weather history database for the weather conditions in past years. The results will help you decide how hot, cold, wet, or windy it might be!

Date:

Astronomy

Oct. 08, 2012 Rise Set
Actual Time 7:38 AM EDT 7:07 PM EDT
Civil Twilight 7:12 AM EDT 7:33 PM EDT
Nautical Twilight 6:41 AM EDT 8:04 PM EDT
Astronomical Twilight 6:10 AM EDT 8:34 PM EDT
Moon 12:23 AM EDT (10/8) 2:50 PM EDT (10/8)
Length of Visible Light 12h 21m
Length of Day
11h 29m
Waning Gibbous, 46% of the Moon is Illuminated
Oct 8
Waning Gibbous
Oct 15
New
Oct 21
First Quarter
Oct 29
Full
Nov 6
Last Quarter

Hourly Weather History & Observations

Time (EDT) Temp. Windchill Dew Point Humidity Pressure Visibility Wind Dir Wind Speed Gust Speed Precip Events Conditions
12:15 AM 37.4 °F - 37.4 °F 100% 30.20 in 10.0 mi Calm Calm - N/A   Clear
12:35 AM 39.2 °F - 37.4 °F 93% 30.20 in 10.0 mi Calm Calm - N/A   Clear
12:55 AM 41.0 °F 39.0 °F 35.6 °F 81% 30.19 in 10.0 mi NE 3.5 mph - N/A   Clear
1:15 AM 39.2 °F 37.0 °F 35.6 °F 87% 30.19 in 10.0 mi NE 3.5 mph - N/A   Clear
1:35 AM 37.4 °F 34.9 °F 35.6 °F 93% 30.20 in 10.0 mi NNE 3.5 mph - N/A   Clear
1:55 AM 39.2 °F - 35.6 °F 87% 30.20 in 10.0 mi Calm Calm - N/A   Clear
2:15 AM 37.4 °F - 35.6 °F 93% 30.21 in 10.0 mi Calm Calm - N/A   Clear
2:35 AM 39.2 °F - 35.6 °F 87% 30.21 in 10.0 mi Calm Calm - N/A   Clear
2:55 AM 39.2 °F - 35.6 °F 87% 30.21 in 10.0 mi Calm Calm - N/A   Clear
3:15 AM 39.2 °F - 35.6 °F 87% 30.22 in 10.0 mi Calm Calm - N/A   Clear
3:35 AM 41.0 °F - 35.6 °F 81% 30.22 in 10.0 mi Calm Calm - N/A   Clear
3:55 AM 39.2 °F 37.0 °F 37.4 °F 93% 30.20 in 10.0 mi ENE 3.5 mph - N/A   Clear
4:15 AM 39.2 °F - 37.4 °F 93% 30.20 in 10.0 mi Calm Calm - N/A   Clear
4:35 AM 41.0 °F - 35.6 °F 81% 30.21 in 10.0 mi Calm Calm - N/A   Clear
4:55 AM 41.0 °F 39.0 °F 37.4 °F 87% 30.21 in 10.0 mi NE 3.5 mph - N/A   Clear
5:15 AM 41.0 °F 39.0 °F 37.4 °F 87% 30.21 in 10.0 mi NE 3.5 mph - N/A   Clear
5:35 AM 41.0 °F 39.0 °F 37.4 °F 87% 30.21 in 10.0 mi ENE 3.5 mph - N/A   Clear
5:55 AM 41.0 °F 39.0 °F 37.4 °F 87% 30.21 in 10.0 mi ENE 3.5 mph - N/A   Clear
6:15 AM 41.0 °F 39.0 °F 37.4 °F 87% 30.21 in 10.0 mi ENE 3.5 mph - N/A   Clear
6:35 AM 41.0 °F 39.0 °F 37.4 °F 87% 30.21 in 10.0 mi NE 3.5 mph - N/A   Clear
6:55 AM 41.0 °F 37.1 °F 35.6 °F 81% 30.20 in 10.0 mi NE 5.8 mph - N/A   Clear
7:15 AM 41.0 °F 38.0 °F 37.4 °F 87% 30.20 in 10.0 mi NE 4.6 mph - N/A   Clear
7:35 AM 41.0 °F - 37.4 °F 87% 30.21 in 10.0 mi Calm Calm - N/A   Clear
7:55 AM 41.0 °F - 37.4 °F 87% 30.21 in 10.0 mi Calm Calm - N/A   Clear
8:15 AM 41.0 °F - 37.4 °F 87% 30.23 in 10.0 mi Calm Calm - N/A   Clear
8:35 AM 41.0 °F - 37.4 °F 87% 30.23 in 10.0 mi Calm Calm - N/A   Clear
8:55 AM 41.0 °F - 37.4 °F 87% 30.23 in 10.0 mi Calm Calm - N/A   Mostly Cloudy
9:15 AM 42.8 °F - 37.4 °F 81% 30.24 in 10.0 mi Calm Calm - N/A   Mostly Cloudy
9:35 AM 42.8 °F 40.1 °F 37.4 °F 81% 30.23 in 10.0 mi East 4.6 mph - N/A   Overcast
9:55 AM 42.8 °F - 37.4 °F 81% 30.24 in 10.0 mi Calm Calm - N/A   Overcast
10:15 AM 42.8 °F 40.1 °F 37.4 °F 81% 30.25 in 10.0 mi East 4.6 mph - N/A   Overcast
10:35 AM 42.8 °F - 37.4 °F 81% 30.25 in 10.0 mi Calm Calm - N/A   Overcast
10:55 AM 42.8 °F 39.3 °F 37.4 °F 81% 30.26 in 10.0 mi SSE 5.8 mph - N/A   Overcast
11:15 AM 44.6 °F 41.4 °F 39.2 °F 81% 30.23 in 10.0 mi ESE 5.8 mph - N/A   Overcast
11:35 AM 44.6 °F 43.1 °F 39.2 °F 81% 30.24 in 10.0 mi SSE 3.5 mph - N/A   Overcast
11:55 AM 44.6 °F 43.1 °F 41.0 °F 87% 30.25 in 10.0 mi South 3.5 mph - N/A   Overcast
12:15 PM 44.6 °F 41.4 °F 41.0 °F 87% 30.24 in 10.0 mi South 5.8 mph - N/A   Overcast
12:35 PM 46.4 °F 43.5 °F 41.0 °F 81% 30.24 in 10.0 mi South 5.8 mph - N/A   Overcast
12:55 PM 46.4 °F 44.3 °F 41.0 °F 81% 30.23 in 10.0 mi SW 4.6 mph - N/A   Overcast
1:15 PM 46.4 °F 43.5 °F 41.0 °F 81% 30.23 in 10.0 mi South 5.8 mph - N/A   Overcast
1:35 PM 46.4 °F 44.3 °F 41.0 °F 81% 30.23 in 10.0 mi South 4.6 mph - N/A   Overcast
1:55 PM 50.0 °F - 41.0 °F 71% 30.22 in 10.0 mi WSW 5.8 mph - N/A   Overcast
2:15 PM 50.0 °F - 41.0 °F 71% 30.22 in 10.0 mi South 6.9 mph - N/A   Overcast
2:35 PM 50.0 °F - 41.0 °F 71% 30.21 in 10.0 mi SSW 3.5 mph - N/A   Overcast
2:55 PM 50.0 °F - 41.0 °F 71% 30.21 in 10.0 mi SE 5.8 mph - N/A   Overcast
3:15 PM 50.0 °F - 41.0 °F 71% 30.21 in 10.0 mi SE 3.5 mph - N/A   Overcast
3:35 PM 50.0 °F - 41.0 °F 71% 30.20 in 10.0 mi SE 4.6 mph - N/A   Overcast
4:15 PM 50.0 °F - 39.2 °F 66% 30.19 in 10.0 mi SE 3.5 mph - N/A   Mostly Cloudy
4:35 PM 50.0 °F - 39.2 °F 66% 30.19 in 10.0 mi South 4.6 mph - N/A   Overcast
4:55 PM 51.8 °F - 41.0 °F 67% 30.18 in 10.0 mi South 3.5 mph - N/A   Overcast
5:15 PM 51.8 °F - 41.0 °F 67% 30.18 in 10.0 mi Calm Calm - N/A   Overcast
5:35 PM 51.8 °F - 41.0 °F 67% 30.18 in 10.0 mi East 6.9 mph - N/A   Overcast
5:55 PM 51.8 °F - 41.0 °F 67% 30.17 in 10.0 mi ESE 8.1 mph - N/A   Overcast
6:15 PM 50.0 °F - 41.0 °F 71% 30.17 in 10.0 mi ESE 6.9 mph - N/A   Scattered Clouds
6:35 PM 50.0 °F - 41.0 °F 71% 30.17 in 10.0 mi ESE 5.8 mph - N/A   Clear
6:55 PM 50.0 °F - 39.2 °F 66% 30.17 in 10.0 mi ESE 5.8 mph - N/A   Clear
7:15 PM 46.4 °F 44.3 °F 39.2 °F 76% 30.18 in 10.0 mi SE 4.6 mph - N/A   Clear
7:35 PM 46.4 °F 45.2 °F 39.2 °F 76% 30.18 in 10.0 mi SE 3.5 mph - N/A   Clear
7:55 PM 46.4 °F - 39.2 °F 76% 30.18 in 10.0 mi Calm Calm - N/A   Clear
8:35 PM 44.6 °F 43.1 °F 39.2 °F 81% 30.19 in 10.0 mi SE 3.5 mph - N/A   Clear
8:55 PM 42.8 °F 41.1 °F 39.2 °F 87% 30.20 in 10.0 mi SSE 3.5 mph - N/A   Clear
9:15 PM 42.8 °F 41.1 °F 39.2 °F 87% 30.19 in 10.0 mi SE 3.5 mph - N/A   Clear
10:15 PM 42.8 °F 41.1 °F 39.2 °F 87% 30.20 in 10.0 mi SSE 3.5 mph - N/A   Clear
10:35 PM 42.8 °F 39.3 °F 39.2 °F 87% 30.20 in 10.0 mi SSE 5.8 mph - N/A   Clear
10:55 PM 42.8 °F 39.3 °F 39.2 °F 87% 30.20 in 10.0 mi SSE 5.8 mph - N/A   Clear
11:15 PM 41.0 °F 37.1 °F 39.2 °F 93% 30.20 in 10.0 mi SSE 5.8 mph - N/A   Clear
11:35 PM 41.0 °F 39.0 °F 37.4 °F 87% 30.20 in 10.0 mi South 3.5 mph - N/A   Clear
11:55 PM 37.4 °F 33.8 °F 37.4 °F 100% 30.20 in 10.0 mi South 4.6 mph - N/A   Clear